Volver al catálogo

SL-12 DEB

LostHEO
NORAD 39803·DEBRIS·🇷🇺 Russia

Lanzado Sep 25, 2008 desde Baikonur Cosmodrome

Loading…

Próximos Pases (próximas 24 horas)

TLE

ObsoletoSource: Space-Track

Época: Mar 16, 2019, 17:00 UTC

1 39803U 08046Q   19075.70887062  .00000128  00000-0  23202-3 0  9994
2 39803  64.5040 268.5067 5701148  27.6377 353.6428  4.22677014 73998

Sigue SL-12 DEB en tiempo real con AllMySat

Download on the App Store